Weather History for Superior, WI

Change the Weather History Date:

Saturday, March 23, 2013

  Actual Average Record
Temperature  
Mean Temperature 20 °F -  
Max Temperature 32 °F 38 °F 60 °F (1959)
Min Temperature 8 °F 19 °F -18 °F (1965)
Degree Days  
Heating Degree Days 45    
Moisture  
Dew Point 19 °F    
Average Humidity 80    
Maximum Humidity 97    
Minimum Humidity 60    
Precipitation  
Precipitation 0.00 in - - ()
Sea Level Pressure  
Sea Level Pressure 30.14 in    
Wind  
Wind Speed 2 mph (ENE)    
Max Wind Speed 10 mph    
Max Gust Speed -    
Visibility 9 miles    
Events Fog    
Averages and records for this station are not official NWS values.
T = Trace of Precipitation, MM = Missing Value Source: NWS Daily Summary

Daily Weather History Graph

Daily Weather History Graph

Search for Another Location

Airport:

Trip Planner

Search our weather history database for the weather conditions in past years. The results will help you decide how hot, cold, wet, or windy it might be!

Date:

Astronomy

Mar. 23, 2013 Rise Set
Actual Time 7:04 AM CDT 7:25 PM CDT
Civil Twilight 6:34 AM CDT 7:55 PM CDT
Nautical Twilight 5:59 AM CDT 8:31 PM CDT
Astronomical Twilight 5:22 AM CDT 9:08 PM CDT
Moon 3:41 PM CDT (3/23) 4:53 AM CDT (3/23)
Length of Visible Light 13h 21m
Length of Day
12h 20m
Waxing Gibbous, 85% of the Moon is Illuminated
Mar 23
Waxing Gibbous
Mar 27
Full
Apr 2
Last Quarter
Apr 10
New
Apr 18
First Quarter

Hourly Weather History & Observations

Time (CDT) Temp. Windchill Dew Point Humidity Pressure Visibility Wind Dir Wind Speed Gust Speed Precip Events Conditions
12:15 AM 15.1 °F - 13.6 °F 94% 30.10 in 10.0 mi Calm Calm - N/A   Clear
12:35 AM 15.1 °F - 14.2 °F 96% 30.11 in 10.0 mi Calm Calm - N/A   Clear
12:55 AM 15.6 °F 10.0 °F 14.9 °F 97% 30.11 in 10.0 mi SW 3.5 mph - N/A   Clear
1:15 AM 13.3 °F - 12.4 °F 96% 30.11 in 7.0 mi Calm Calm - N/A   Clear
1:35 AM 12.0 °F - 10.2 °F 92% 30.11 in 5.0 mi Calm Calm - N/A   Clear
1:55 AM 11.5 °F - 9.5 °F 92% 30.12 in 10.0 mi Calm Calm - N/A   Clear
2:15 AM 10.4 °F - 8.2 °F 91% 30.12 in 10.0 mi Calm Calm - N/A   Clear
2:35 AM 9.5 °F - 7.7 °F 92% 30.11 in 10.0 mi Calm Calm - N/A   Clear
2:55 AM 9.7 °F - 7.9 °F 92% 30.11 in 10.0 mi Calm Calm - N/A   Clear
3:15 AM 9.3 °F - 6.3 °F 87% 30.11 in 10.0 mi Calm Calm - N/A   Mostly Cloudy
3:35 AM 8.8 °F - 5.9 °F 88% 30.11 in 10.0 mi Calm Calm - N/A   Overcast
3:55 AM 8.4 °F - 5.9 °F 89% 30.11 in 5.0 mi Calm Calm - N/A   Mostly Cloudy
4:15 AM 8.1 °F - 7.0 °F 95% 30.11 in 2.0 mi Calm Calm - N/A   Overcast
4:35 AM 9.5 °F - 8.6 °F 96% 30.10 in 0.2 mi Calm Calm - N/A Fog Light Freezing Fog
4:55 AM 9.0 °F - 7.7 °F 95% 30.11 in 0.5 mi Calm Calm - N/A Fog Light Freezing Fog
5:15 AM 8.2 °F - 6.4 °F 92% 30.12 in 0.5 mi Calm Calm - N/A Fog Light Freezing Fog
5:35 AM 8.1 °F - 5.9 °F 91% 30.13 in 0.8 mi Calm Calm - N/A   Mist
6:15 AM - - - N/A% 30.15 in 10.0 mi Calm Calm - N/A   Mostly Cloudy
6:35 AM - - - N/A% 30.15 in 5.0 mi Calm Calm - N/A   Haze
6:55 AM - - - N/A% 30.16 in 0.8 mi Calm Calm - N/A   Overcast
7:15 AM - - - N/A% 30.17 in 7.0 mi Calm Calm - N/A   Overcast
7:35 AM - - - N/A% 30.16 in 5.0 mi Calm Calm - N/A   Haze
7:55 AM - - - N/A% 30.16 in 5.0 mi Calm Calm - N/A   Haze
8:15 AM - - - N/A% 30.17 in 7.0 mi Calm Calm - N/A   Overcast
8:35 AM - - - N/A% 30.17 in 10.0 mi Calm Calm - N/A   Overcast
8:55 AM - - - N/A% 30.16 in 7.0 mi Calm Calm - N/A   Overcast
9:15 AM - - - N/A% 30.17 in 7.0 mi Calm Calm - N/A   Overcast
9:35 AM - - - N/A% 30.17 in 10.0 mi Calm Calm - N/A   Overcast
9:55 AM - - - N/A% 30.17 in 10.0 mi Calm Calm - N/A   Overcast
10:15 AM 23.5 °F - 22.1 °F 94% 30.17 in 10.0 mi Calm Calm - N/A   Overcast
10:35 AM 24.8 °F - 22.1 °F 89% 30.17 in 10.0 mi Calm Calm - N/A   Overcast
10:55 AM 26.6 °F - 21.7 °F 82% 30.18 in 10.0 mi Calm Calm - N/A   Overcast
11:15 AM 27.5 °F - 21.2 °F 77% 30.16 in 10.0 mi Calm Calm - N/A   Overcast
11:35 AM 31.1 °F - 20.5 °F 65% 30.16 in 10.0 mi Calm Calm - N/A   Scattered Clouds
11:55 AM 30.9 °F - 20.5 °F 65% 30.16 in 10.0 mi Calm Calm - N/A   Mostly Cloudy
12:15 PM 32.0 °F - 20.5 °F 63% 30.16 in 10.0 mi Calm Calm - N/A   Overcast
12:35 PM 32.4 °F 26.0 °F 20.8 °F 63% 30.15 in 10.0 mi NE 6.9 mph - N/A   Mostly Cloudy
12:55 PM 32.0 °F 25.6 °F 20.7 °F 63% 30.14 in 10.0 mi ENE 6.9 mph - N/A   Scattered Clouds
1:15 PM 32.0 °F 26.4 °F 20.7 °F 63% 30.15 in 10.0 mi NE 5.8 mph - N/A   Clear
1:35 PM 32.2 °F 27.7 °F 19.8 °F 60% 30.15 in 10.0 mi ENE 4.6 mph - N/A   Clear
1:55 PM 32.9 °F 25.9 °F 21.0 °F 62% 30.14 in 10.0 mi East 8.1 mph - N/A   Clear
2:15 PM 32.2 °F 24.4 °F 21.2 °F 64% 30.13 in 10.0 mi East 9.2 mph - N/A   Clear
2:35 PM 32.5 °F 24.8 °F 21.7 °F 64% 30.13 in 10.0 mi East 9.2 mph - N/A   Clear
2:55 PM 32.5 °F 24.8 °F 22.8 °F 67% 30.12 in 10.0 mi ENE 9.2 mph - N/A   Clear
3:15 PM 32.7 °F 25.7 °F 22.8 °F 67% 30.12 in 10.0 mi East 8.1 mph - N/A   Clear
3:35 PM 32.9 °F 25.9 °F 23.0 °F 67% 30.12 in 10.0 mi NE 8.1 mph - N/A   Clear
3:55 PM 32.4 °F 24.6 °F 23.5 °F 70% 30.12 in 10.0 mi ENE 9.2 mph - N/A   Clear
4:15 PM 32.0 °F 23.6 °F 23.7 °F 71% 30.11 in 10.0 mi NE 10.4 mph - N/A   Clear
4:35 PM 32.0 °F 23.6 °F 24.3 °F 73% 30.12 in 10.0 mi NE 10.4 mph - N/A   Scattered Clouds
4:55 PM 31.6 °F 24.4 °F 23.5 °F 72% 30.12 in 10.0 mi ENE 8.1 mph - N/A   Clear
5:15 PM 32.0 °F 24.2 °F 23.0 °F 69% 30.11 in 10.0 mi NE 9.2 mph - N/A   Clear
5:35 PM 31.8 °F 24.6 °F 25.2 °F 76% 30.11 in 10.0 mi ENE 8.1 mph - N/A   Clear
5:55 PM 30.4 °F 24.5 °F 24.6 °F 79% 30.12 in 10.0 mi ENE 5.8 mph - N/A   Scattered Clouds
6:15 PM 30.2 °F 22.6 °F 24.4 °F 79% 30.12 in 10.0 mi ENE 8.1 mph - N/A   Clear
6:35 PM 30.2 °F 22.6 °F 24.6 °F 80% 30.12 in 10.0 mi ENE 8.1 mph - N/A   Clear
6:55 PM 29.8 °F 23.9 °F 25.0 °F 82% 30.13 in 10.0 mi NE 5.8 mph - N/A   Scattered Clouds
7:15 PM 29.7 °F 22.8 °F 23.9 °F 79% 30.13 in 10.0 mi NE 6.9 mph - N/A   Scattered Clouds
7:35 PM 29.7 °F 23.7 °F 24.6 °F 81% 30.14 in 10.0 mi NE 5.8 mph - N/A   Mostly Cloudy
7:55 PM 29.8 °F 23.9 °F 24.8 °F 81% 30.14 in 10.0 mi NE 5.8 mph - N/A   Overcast
8:15 PM 29.8 °F 22.2 °F 25.3 °F 83% 30.14 in 10.0 mi NE 8.1 mph - N/A   Overcast
8:35 PM 29.5 °F 22.5 °F 25.2 °F 84% 30.14 in 10.0 mi NE 6.9 mph - N/A   Overcast
8:55 PM 29.7 °F 22.8 °F 25.3 °F 84% 30.14 in 10.0 mi NE 6.9 mph - N/A   Overcast
9:15 PM 30.0 °F 24.1 °F 25.7 °F 84% 30.14 in 10.0 mi ENE 5.8 mph - N/A   Overcast
9:35 PM 30.2 °F 24.3 °F 25.0 °F 81% 30.14 in 10.0 mi ENE 5.8 mph - N/A   Overcast
9:55 PM 30.0 °F 25.2 °F 24.3 °F 79% 30.14 in 10.0 mi ENE 4.6 mph - N/A   Overcast
10:15 PM 29.7 °F 26.1 °F 24.8 °F 82% 30.15 in 10.0 mi ENE 3.5 mph - N/A   Overcast
10:35 PM 29.7 °F 26.1 °F 25.7 °F 85% 30.15 in 10.0 mi ENE 3.5 mph - N/A   Overcast
10:55 PM 29.7 °F 24.7 °F 23.7 °F 79% 30.15 in 10.0 mi ENE 4.6 mph - N/A   Overcast
11:15 PM 29.8 °F 23.0 °F 21.6 °F 71% 30.15 in 10.0 mi East 6.9 mph - N/A   Overcast
11:35 PM 29.3 °F 23.2 °F 22.1 °F 75% 30.15 in 10.0 mi East 5.8 mph - N/A   Overcast
11:55 PM 28.9 °F 23.9 °F 21.7 °F 74% 30.15 in 10.0 mi East 4.6 mph - N/A   Overcast